Lid_Strength_Index
3 5 6 7 11 12 14 13 10 9 9 7 6 7 8 8 10 12 2 1 0 -0 -1 -1 -2 -2 -2 -2 -2 -2 -2 -2 -2 -2 -2 -2 -2 -3 -3 -3 -3 -2 -2 -2 -2 -2 -2 -2 -2
5 5 6 8 12 14 14 12 10 9 7 6 6 7 8 9 5 4 3 0 -0 -0 -1 -1 -1 -2 -2 -2 -2 -2 -2 -2 -2 -2 -2 -3 -3 -3 -3 -3 -3 -2 -2 -2 -2 -2 -2 -2 -2
4 6 9 11 12 16 14 11 9 8 6 7 8 5 7 8 4 3 1 -0 -0 -0 -1 -1 -2 -2 -2 -2 -2 -3 -3 -3 -3 -2 -3 -2 -2 -2 -3 -3 -2 -2 -2 -2 -2 -2 -2 -2 -2
7 7 9 12 13 14 12 10 9 10 8 6 6 9 5 3 3 2 0 0 0 -0 -1 -1 -2 -2 -2 -3 -3 -2 -3 -3 -3 -3 -2 -3 -3 -3 -2 -3 -2 -2 -2 -2 -2 -2 -2 -2 -2
7 10 12 13 13 14 11 8 9 10 10 8 7 10 7 3 1 1 1 0 1 -0 -0 -1 -2 -2 -2 -3 -2 -2 -3 -3 -2 -3 -3 -3 -3 -3 -2 -2 -2 -2 -2 -2 -2 -2 -2 -2 -2
9 10 13 14 11 13 11 8 9 10 9 8 8 8 8 2 2 1 0 1 0 -0 -0 -1 0 -1 -2 -3 -3 -3 -3 -3 -3 -3 -3 -3 -3 -3 -2 -2 -2 -2 -2 -2 -2 -2 -2 -2 -2
9 11 13 13 12 13 11 8 10 10 9 10 5 9 6 4 1 1 1 1 0 -0 -0 -0 -0 -0 -1 -2 -2 -2 -3 -3 -2 -3 -3 -2 -3 -3 -3 -2 -2 -2 -2 -2 -2 -2 -2 -2 -2
8 10 13 13 13 13 10 10 9 9 9 7 5 9 8 4 1 1 1 1 0 0 -0 0 0 -0 -0 -0 -1 -1 -2 -2 -2 -2 -2 -1 -1 -2 -2 -1 -2 -2 -2 -2 -2 -2 -2 -2 -2
6 11 12 13 12 12 10 11 10 8 8 7 6 5 4 2 2 2 2 2 1 1 0 0 0 0 -0 -0 0 -0 -1 -1 -1 -1 -1 -0 0 -1 -1 -1 -2 -2 -2 -2 -2 -2 -2 -2 -1
9 12 11 10 9 11 9 10 10 10 9 9 7 4 3 2 3 3 3 3 3 2 1 0 1 1 -0 -1 0 0 -0 -0 -0 0 0 -0 0 -0 -0 0 -1 -2 -2 -2 -2 -2 -1 -0 1
9 11 8 9 10 9 9 11 10 10 11 9 8 6 4 4 4 4 3 3 3 2 1 0 1 1 1 0 0 0 1 0 0 1 1 0 1 1 1 1 1 1 1 1 -0 0 1 1 1
10 8 8 9 9 10 10 10 11 12 12 9 5 4 4 4 4 4 4 3 3 3 2 1 0 1 2 0 0 0 0 1 0 1 1 1 2 1 1 1 1 1 1 1 1 1 1 2 1
9 8 8 10 10 10 10 11 12 13 11 7 4 4 4 4 4 3 3 3 3 3 3 2 0 -0 1 1 1 0 0 1 1 1 1 1 1 1 1 1 1 1 1 2 2 2 2 2 2
7 7 10 11 10 10 10 11 10 10 11 8 5 5 5 4 4 3 3 3 3 2 2 2 1 0 0 1 1 1 1 1 1 1 1 0 1 1 1 2 1 2 2 1 2 2 2 2 2
7 9 11 11 11 11 10 11 11 10 10 10 8 5 5 4 3 3 3 3 3 2 1 2 2 1 0 1 1 1 1 1 1 1 1 1 1 1 1 1 2 1 1 1 1 1 1 2 2
9 10 13 10 11 10 10 13 10 8 9 10 10 10 5 4 4 3 2 2 2 2 1 1 1 1 1 0 1 1 1 1 1 1 1 1 1 1 2 1 1 1 1 1 1 1 2 2 2
11 15 13 11 10 11 11 12 9 8 9 9 10 9 8 6 4 3 3 3 3 2 2 1 1 1 1 1 0 1 1 1 1 1 1 1 1 1 1 1 1 1 1 1 1 2 2 3 3
15 15 13 12 11 12 13 12 10 11 9 9 9 9 9 8 5 4 3 3 3 2 2 2 1 1 1 1 1 1 1 1 1 1 1 0 0 0 1 1 1 1 2 2 2 2 2 2 3
11 13 13 11 10 12 13 13 11 10 11 11 10 10 10 9 6 4 3 3 3 3 3 2 2 1 1 2 2 2 1 1 1 1 1 1 0 -0 1 1 1 2 2 2 2 2 2 3 3
11 13 13 12 11 12 12 12 11 10 9 10 10 10 9 9 9 6 4 3 3 3 3 3 2 1 1 1 1 1 1 1 1 0 1 1 1 -0 0 1 1 2 3 2 2 1 2 2 3
12 13 13 13 12 12 14 15 13 10 9 8 8 9 9 9 8 8 6 4 3 3 3 2 2 2 1 1 1 2 2 2 2 1 1 1 1 1 0 1 1 2 2 2 2 2 3 4 3
15 10 11 13 15 16 14 18 16 14 12 10 8 9 9 7 8 7 7 5 3 3 2 2 2 2 2 1 1 2 2 3 1 1 0 0 1 1 1 1 1 2 2 2 2 2 2 3 4
12 10 12 12 15 16 16 17 16 14 14 12 10 9 8 8 7 6 7 7 4 3 3 2 2 2 2 2 1 1 2 1 1 1 1 1 1 1 1 1 1 2 2 2 2 3 3 2 3
9 12 13 13 15 19 16 16 17 15 13 13 11 10 9 9 9 8 7 7 6 4 3 2 2 2 2 2 2 2 2 2 2 2 2 1 1 1 1 1 1 2 2 2 2 2 2 2 1
10 13 19 20 19 20 16 17 15 13 12 12 13 11 11 10 10 9 9 9 8 5 4 3 3 2 2 2 2 2 2 2 2 2 1 1 1 1 1 1 1 2 2 1 1 2 2 2 2
12 13 19 23 21 20 18 19 16 11 10 10 10 11 11 11 11 11 10 10 9 8 4 3 3 2 3 2 2 2 2 2 2 1 1 1 1 1 1 1 1 1 1 1 1 1 2 3 2
12 14 14 19 23 21 19 16 13 12 12 12 12 11 11 11 10 11 9 11 11 10 8 4 4 3 3 3 2 2 2 2 2 2 1 1 1 1 1 1 2 1 1 1 2 2 2 3 3
11 11 15 16 22 24 20 19 17 15 13 12 12 11 11 11 11 11 11 11 11 11 10 9 6 4 4 4 3 2 2 2 1 1 1 1 1 1 1 2 2 2 2 2 2 2 3 3 4
14 13 14 14 18 21 22 20 15 13 11 11 12 12 12 12 12 11 11 11 10 10 10 10 10 10 9 8 6 4 4 3 2 2 2 2 1 2 2 2 2 3 3 3 2 4 5 5 6
13 13 13 16 18 17 18 18 13 12 11 11 13 13 13 12 11 11 11 11 11 10 10 10 10 10 9 9 9 8 7 4 3 2 2 2 2 3 2 2 2 3 3 4 4 6 7 6 7